MDT,Max TemperatureF,Mean TemperatureF,Min TemperatureF,Max Dew PointF,MeanDew PointF,Min DewpointF,Max Humidity, Mean Humidity, Min Humidity, Max Sea Level PressureIn, Mean Sea Level PressureIn, Min Sea Level PressureIn, Max VisibilityMiles, Mean VisibilityMiles, Min VisibilityMiles, Max Wind SpeedMPH, Mean Wind SpeedMPH, Max Gust SpeedMPH,PrecipitationIn, CloudCover, Events, WindDirDegrees
2012-3-1,72,56,39,16,9,2,31,19,6,30.01,29.82,29.68,10,10,10,31,13,40,0.00,0,,228
2012-3-2,66,53,40,15,7,-4,25,17,9,30.04,29.81,29.70,10,9,4,40,16,48,0.00,0,,304
2012-3-3,60,47,33,6,0,-5,27,18,8,30.26,30.17,30.06,10,10,10,22,7,28,0.00,0,,323
2012-3-4,69,49,29,8,4,-3,25,17,8,30.22,30.13,30.04,10,10,10,13,3,16,0.00,0,,319
2012-3-5,76,56,35,13,6,1,30,18,5,30.16,30.04,29.91,10,10,10,12,4,15,0.00,3,,13
2012-3-6,80,62,44,8,5,1,18,12,5,30.03,29.77,29.61,10,10,10,33,13,39,0.00,2,,209
2012-3-7,81,66,51,21,11,1,30,18,5,29.87,29.67,29.52,10,6,0,38,19,46,0.01,2,,224
2012-3-8,55,47,38,22,18,11,48,33,18,30.37,30.08,29.75,10,10,8,23,12,31,0.00,3,,49
2012-3-9,47,40,32,27,22,20,59,48,37,30.40,30.31,30.19,10,10,10,22,12,26,0.00,5,,60
2012-3-10,51,44,36,31,29,27,76,61,46,30.21,30.06,29.94,10,10,10,16,7,20,0.00,6,,52
2012-3-11,69,52,35,30,21,9,76,44,11,30.05,29.97,29.88,10,10,10,33,10,36,0.00,1,,229
2012-3-12,74,55,36,20,12,3,40,24,7,30.05,29.98,29.93,10,10,10,15,6,20,0.00,4,,207
2012-3-13,79,58,37,8,4,1,23,14,5,30.06,29.93,29.84,10,10,10,10,4,26,0.00,3,,39
2012-3-14,80,64,48,13,1,-11,21,12,3,30.06,29.91,29.86,10,10,10,17,7,23,0.00,4,,220
2012-3-15,76,58,40,6,2,-3,18,12,5,30.10,29.97,29.93,10,10,10,10,4,13,0.00,4,,137
2012-3-16,83,63,42,7,4,1,20,13,5,29.95,29.86,29.76,10,10,10,20,6,25,0.00,1,,274
2012-3-17,84,68,52,22,10,4,15,11,6,29.96,29.73,29.60,10,10,10,26,15,37,0.00,2,,216
2012-3-18,78,66,53,30,22,16,38,24,9,29.79,29.64,29.51,10,5,0,49,23,66,0.00,7,,228
2012-3-19,53,44,34,37,30,24,76,56,35,29.86,29.73,29.59,10,9,5,36,13,45,0.08,8,Rain-Snow-Thunderstorm,268
2012-3-20,58,46,34,28,17,7,82,48,14,29.91,29.84,29.77,10,10,10,35,16,43,0.00,2,,284
2012-3-21,66,49,32,19,12,4,56,32,8,30.01,29.90,29.80,10,10,10,18,7,28,0.00,0,,222
2012-3-22,77,59,41,23,18,14,34,22,10,29.88,29.81,29.73,10,10,10,20,8,25,0.00,0,,242
2012-3-23,83,69,54,22,19,16,26,17,8,29.94,29.86,29.79,10,10,10,17,8,24,0.00,0,,214
2012-3-24,85,65,46,23,20,15,34,18,9,29.95,29.87,29.81,10,10,10,17,3,20,0.00,0,,82
2012-3-25,90,70,50,22,17,14,24,16,7,29.99,29.80,29.68,10,10,10,22,6,26,0.00,3,,27
2012-3-26,82,68,53,21,14,7,22,14,6,29.85,29.78,29.73,10,10,10,26,8,35,0.00,3,,266
2012-3-27,83,66,48,20,14,10,24,16,7,30.02,29.87,29.80,10,10,10,16,7,22,0.00,0,,245
2012-3-28,86,68,49,34,17,11,26,17,7,29.92,29.83,29.73,10,10,10,22,7,28,0.00,1,,237
2012-3-29,85,70,55,36,19,2,40,23,5,29.85,29.76,29.68,10,10,10,24,10,32,0.00,1,,252
2012-3-30,84,67,49,14,11,6,20,13,6,29.86,29.78,29.71,10,10,10,21,8,26,0.00,1,,243
2012-3-31,87,73,58,18,14,10,19,13,6,30.03,29.76,29.68,10,10,10,23,10,28,0.00,3,,251